Other Public Products
Issued by NWS Grand Forks, ND

Home | Current Version | Previous Version | Graphics & Text | Print | Product List | Glossary On
Versions: 1 2 3 4 5 6 7 8 9 10 11 12 13 14 15 16 17 18 19 20 21 22 23 24 25 26 27 28 29 30 31 32 33 34 35 36 37 38 39 40 41 42 43 44 45 46 47 48 49 50
000
FPUS83 KFGF 221231
OPUFGF
PRAIRIE TO PINES WEATHER ROUNDUP
NATIONAL WEATHER SERVICE EASTERN NORTH DAKOTA/GRAND FORKS ND
700 AM CDT TUE MAY 22 2018

 **SATELLITE DATA USED TO AUGMENT SKY COVER AT AUTOMATED STATIONS**
 *****  WEATHER ACROSS EASTERN NORTH DAKOTA  *****

CITY           SKY/WX    TMP DP  RH WIND       PRES   REMARKS
GRAND FORKS    FAIR      53  53 100 S7        29.96S FOG
6HR MIN TEMP:  50; 6HR MAX TEMP:  57;

GRND FORKS AFB FAIR      53  53 100 SE7       29.96S
GRND FORKS NWS   N/A     56  54  91 S13       29.95R
BUXTON           N/A     55  55  99 S8          N/A
DEVILS LAKE    FAIR      56  55  97 SE5       29.95S FOG
6HR MIN TEMP:  52; 6HR MAX TEMP:  61;

FARGO          FOG       54  54 100 S7        29.98R VSB 1/4
6HR MIN TEMP:  53; 6HR MAX TEMP:  57;

WAHPETON ARPT  CLOUDY    55  54  94 S8        30.00S VSB 3/4
$$

 *****  WEATHER ACROSS CENTRAL AND WESTERN NORTH DAKOTA  *****

CITY           SKY/WX    TMP DP  RH WIND       PRES   REMARKS
JAMESTOWN      FAIR      53  52  96 S6        29.95R FOG
6HR MIN TEMP:  50; 6HR MAX TEMP:  58;

BISMARCK       FAIR      49  48  97 NE6       29.95R FOG
6HR MIN TEMP:  48; 6HR MAX TEMP:  56;

MINOT          FAIR      56  49  77 SE7       29.90R
6HR MIN TEMP:  53; 6HR MAX TEMP:  63;

MINOT AFB      FAIR      54  47  77 S7        29.88R
6HR MIN TEMP:  50; 6HR MAX TEMP:  59;

GARRISON         N/A     46  44  93 CALM      29.92R
6HR MIN TEMP:  44; 6HR MAX TEMP:  53;

WILLISTON      FAIR      53  46  77 SW3       29.90R
6HR MIN TEMP:  48; 6HR MAX TEMP:  62;

DICKINSON      FAIR      53  31  42 S6        29.91S
6HR MIN TEMP:  50; 6HR MAX TEMP:  55;

HETTINGER      FAIR      44  40  85 CALM      29.95R
6HR MIN TEMP:  43; 6HR MAX TEMP:  56;

$$

 *****  OTHER OBSERVATIONS NORTHEAST NORTH DAKOTA  *****

CITY           SKY/WX    TMP DP  RH WIND       PRES   REMARKS
WALHALLA       FAIR      61  61 100 SW5       29.93F
LANGDON        FAIR      55  55 100 S7        29.96R
CAVALIER         N/A     55  55 100 S6        29.94S
GRAFTON        FAIR      54  54 100 S7        29.98R FOG
CANDO          FAIR      55  55 100 S7        29.96S
FORT TOTTEN      N/A     55  55 100 SE5       29.95S
ROLLA          FAIR      55  55 100 S6        29.94S
RUGBY          NOT AVBL
 ***** THE ABOVE OBSERVATIONS ARE NON NWS ARE NOT QUALITY
        CONTROLLED AND MAY MIS-REPORT RAIN FOR SNOW...
$$

 *****  OTHER OBSERVATIONS SOUTHEAST NORTH DAKOTA *****

CITY           SKY/WX    TMP DP  RH WIND       PRES   REMARKS
COOPERSTOWN    FAIR      55  55 100 S7        29.97S FOG
VALLEY CITY    FAIR      52  52 100 S7        29.99R FOG
OAKES          FOG       50  50 100 S3        29.99R VSB 1/2
GWINNER          N/A     50  50 100 CALM      29.99R FOG
SHEYENNE NWR     N/A     55  55 100 S7        29.95S
BUFFALO          N/A     53  51  93 CALM        N/A
WYNDMERE       NOT AVBL
 ***** THE ABOVE OBSERVATIONS ARE NON NWS ARE NOT QUALITY
       CONTROLLED AND MAY MIS-REPORT RAIN FOR SNOW...
$$

  *****  WEATHER ACROSS NORTHERN MINNESOTA  *****

CITY           SKY/WX    TMP DP  RH WIND       PRES   REMARKS
FLAG ISLAND    FAIR      54  50  87 S7        29.98R
WARROAD        FAIR      54  48  82 SW5       30.00R FOG
ROSEAU         FAIR      52  46  82 S7        29.99R HAZE
HALLOCK        FAIR      55  54  94 S9        29.96S
THF RVR FALLS  FAIR      51  48  89 S6        30.00S
6HR MIN TEMP:  47; 6HR MAX TEMP:  54;

HALSTAD          N/A     56  54  92 S8          N/A
FOSSTON        FAIR      55  50  82 S5        30.01R
BAUDETTE       FAIR      48  46  93 SW3       30.01R
6HR MIN TEMP:  44; 6HR MAX TEMP:  51;

WASKISH        FAIR      52  46  82 CALM      30.02S
CROOKSTON      FAIR      55  54  94 S7        29.99S FOG
$$
  *****  WEATHER ACROSS CENTRAL AND WEST MINNESOTA  *****

CITY           SKY/WX    TMP DP  RH WIND       PRES   REMARKS
BEMIDJI        FAIR      51  45  80 CALM      30.02R
6HR MIN TEMP:  42; 6HR MAX TEMP:  50;

PARK RAPIDS    CLOUDY    55  47  74 E3        30.01S
6HR MIN TEMP:  53; 6HR MAX TEMP:  56;

WADENA         CLOUDY    54  46  76 CALM      30.02S
DETROIT LAKES  FAIR      55  52  88 CALM      30.02S
MOORHEAD       CLOUDY    55  54  94 S8        30.00S FOG
FERGUS FALLS   CLOUDY    57  54  88 SE6       29.98R
ELBOW LAKE     CLOUDY    56  53  89 SE7       30.02R
6HR MIN TEMP:  55; 6HR MAX TEMP:  57;

MORRIS MN      FOG       55  55 100 SE7       30.01R VSB 1/2
STAPLES        CLOUDY    54  45  71 CALM      30.03R
WHEATON        FOG       57  55  94 SE5       30.02R VSB 1/4
$$
  *****  WEATHER ELSEWHERE ACROSS MINNESOTA  *****

CITY           SKY/WX    TMP DP  RH WIND       PRES   REMARKS
DULUTH         PTSUNNY   57  44  62 W5        30.03R
6HR MIN TEMP:  55; 6HR MAX TEMP:  58;

INTRNTL FALLS  FAIR      47  44  90 SW3       30.02R
6HR MIN TEMP:  37; 6HR MAX TEMP:  48;

ELY            FAIR      48  45  87 CALM      30.03S
CLOQUET        CLOUDY    54  45  71 CALM      30.04S
BRAINERD       PTSUNNY   57  46  66 CALM      30.04R
6HR MIN TEMP:  55; 6HR MAX TEMP:  57;

HIBBING        CLOUDY    52  44  74 CALM      30.03R
6HR MIN TEMP:  44; 6HR MAX TEMP:  51;

ALEXANDRIA     CLOUDY    58  52  80 E5        30.03R
6HR MIN TEMP:  57; 6HR MAX TEMP:  58;

SAINT CLOUD    FAIR      50  49  96 W3        30.03R
6HR MIN TEMP:  46; 6HR MAX TEMP:  52;

MINNEAPOLIS    FAIR      59  56  89 VRB3      30.02R
6HR MIN TEMP:  57; 6HR MAX TEMP:  59;

$$

  *****  WEATHER ACROSS SOUTH DAKOTA  *****

CITY           SKY/WX    TMP DP  RH WIND       PRES   REMARKS
SIOUX FALLS    MOCLDY    53  53 100 E5        30.02R FOG
6HR MIN TEMP:  46; 6HR MAX TEMP:  54;

BROOKINGS      FOG       51  51 100 SE6       30.01R VSB 1/4
WATERTOWN      FOG       52  52 100 S7        29.99S VSB 1/4
6HR MIN TEMP:  51; 6HR MAX TEMP:  55;

HURON          FAIR      55  53  93 MISG      29.97R FOG
6HR MIN TEMP:  52; 6HR MAX TEMP:  56;

SISSETON         N/A     56  56 100 S6        29.98S
ABERDEEN       FAIR      53  50  89 CALM      29.98R FOG
6HR MIN TEMP:  47; 6HR MAX TEMP:  54;

MITCHELL       FAIR      57  55  93 SE7       29.97S FOG
PIERRE         FAIR      55  54  96 SE8       29.92R
6HR MIN TEMP:  52; 6HR MAX TEMP:  56;

MOBRIDGE       FAIR      56  53  90 E7        29.91R
RAPID CITY     FAIR      50  48  93 W5        29.94R
6HR MIN TEMP:  48; 6HR MAX TEMP:  56;

$$

  *****  SOME WEATHER IN NEARBY STATES *****

CITY           SKY/WX    TMP DP  RH WIND       PRES   REMARKS
GLASGOW MT     FAIR      59  50  72 CALM      29.89R
6HR MIN TEMP:  57; 6HR MAX TEMP:  66;

GREAT FALLS MT CLOUDY    57  49  74 SW6       29.99R
6HR MIN TEMP:  57; 6HR MAX TEMP:  60;

CHEYENNE WY    FAIR      46  44  93 W8        30.03F
6HR MIN TEMP:  46; 6HR MAX TEMP:  53;

SCOTTSBLUFF NE FAIR      50  50 100 N6        29.96F
6HR MIN TEMP:  50; 6HR MAX TEMP:  58;

OMAHA NE       MOCLDY    63  58  83 SE5       30.00R
6HR MIN TEMP:  61; 6HR MAX TEMP:  64;

DES MOINES IA  PTSUNNY   62  59  90 CALM      30.03R
6HR MIN TEMP:  60; 6HR MAX TEMP:  64;

DAVENPORT IA   FAIR      59  57  93 N3        30.05R FOG
6HR MIN TEMP:  54; 6HR MAX TEMP:  62;

CHICAGO IL     CLOUDY    56  54  93 N5        30.00R FOG
6HR MIN TEMP:  54; 6HR MAX TEMP:  56; 6HR PCP: TRACE;

EAU CLAIRE WI  CLOUDY    55  54  96 CALM      30.04R
6HR MIN TEMP:  54; 6HR MAX TEMP:  55;

LA CROSSE WI   CLOUDY    57  55  93 E3        30.04R
6HR MIN TEMP:  57; 6HR MAX TEMP:  59; 6HR PCP:  0.01;

$$

  *****  SOME NATIONAL WEATHER *****

CITY           SKY/WX    TMP DP  RH WIND       PRES   REMA



USA.gov is the U.S. government's official web portal to all federal, state and local government web resources and services.